Simultaneous Nadir Overpasses (SNOs) Predictions

Prediction of SNOs near US between NOAA-19 and NPP Satellite Orbit:

Table of predicted SNOs near US for the next 10.0 days since TLE Epoch: 11/27/2012
Index Date (NOAA-19) Time (NOAA-19) NOAA-19 Lat,Lon Date (NPP) Time (NPP) NPP Lat,Lon Distance(km) Time Diff (sec)
1 11/27/2012 18:32:03 47.02, -84.03 11/27/2012 18:32:55 46.49, -86.72 213.76 52
2 11/27/2012 20:14:43 49.03,-110.40 11/27/2012 20:15:00 48.51,-112.93 194.03 17
3 11/28/2012 06:53:11 38.35, -72.65 11/28/2012 06:49:48 38.76, -74.64 179.33 203
4 11/28/2012 08:35:51 36.33, -98.82 11/28/2012 08:31:53 36.72,-100.67 170.98 238
5 11/28/2012 10:18:30 34.36,-124.94 11/28/2012 10:13:58 34.67,-126.66 161.69 272
6 11/28/2012 18:22:03 50.00, -82.60 11/28/2012 18:14:51 49.85, -83.38 58.43 432
7 11/28/2012 20:04:07
